Terug naar catalogus

TITAN 3C TRANSTAGE DEB

ActiefLEO
NORAD 1964·DEBRIS·🇺🇸 United States

Gelanceerd Oct 15, 1965 vanaf Cape Canaveral Space Force Station

Loading…

Volgende Passages (komende 24 uur)

TLE

VersSource: Space-Track

Epoch: Sep 14, 2026, 14:24 UTC

1 01964U 65082GZ  26257.60012938  .00000961  00000-0  32229-3 0  9999
2 01964  32.2012   7.0886 0174839 254.5835 103.5425 14.26502164130426

Volg TITAN 3C TRANSTAGE DEB in realtime met AllMySat

Download on the App Store